Location: Unspecified
(0.0000°N, 0.0000°E)
Time: 05:44:19
(UTC+00:00)

Courier 1B Rocket - Visible Passes

Search period start: 06 December 2016 00:00
Search period end: 16 December 2016 00:00
Orbit: 921 x 1202 km, 28.3° (Epoch: 05 December)

Date Brightness Start Highest point End Pass type
(mag) Time Alt. Az. Time Alt. Az. Time Alt. Az.
06 Dec 7.0 04:22:41 13° NNW 04:26:45 20° NNE 04:31:45 10° ENE visible
06 Dec 5.7 19:36:03 10° WSW 19:42:44 50° NNW 19:44:42 40° NNE visible
07 Dec 7.3 03:25:32 14° NNE 03:25:32 14° NNE 03:28:53 10° NE visible
07 Dec 6.1 05:12:41 10° NW 05:19:42 41° NNE 05:26:17 10° E visible
07 Dec 5.3 18:34:51 10° WSW 18:41:33 74° NNW 18:47:34 16° NE visible
07 Dec 6.9 20:30:08 10° WNW 20:33:57 21° NW 20:33:57 21° NW visible
08 Dec 6.5 04:14:46 20° NNW 04:18:20 29° NNE 04:24:30 10° E visible
08 Dec 6.3 19:28:10 10° W 19:34:11 32° NNW 19:36:49 26° N visible
09 Dec 7.0 03:17:37 21° NNE 03:17:37 21° NNE 03:22:15 10° ENE visible
09 Dec 5.6 05:04:00 12° NW 05:11:05 63° NNE 05:18:09 10° ESE visible
09 Dec 5.8 18:26:38 10° WSW 18:32:57 47° NNW 18:39:41 10° NE visible
09 Dec 7.2 20:23:19 10° NW 20:26:03 15° NNW 20:26:03 15° NNW visible
10 Dec 6.0 04:06:52 31° NNW 04:09:47 43° NNE 04:16:43 10° E visible
10 Dec 6.8 19:20:47 10° WNW 19:25:47 21° NNW 19:28:55 16° N visible
11 Dec 6.6 03:09:44 29° NE 03:09:44 29° NE 03:14:53 10° E visible
11 Dec 5.4 04:56:06 17° WNW 05:02:23 87° SSW 05:09:41 10° ESE visible
11 Dec 6.4 18:18:48 10° W 18:24:28 30° NNW 18:30:27 10° NNE visible
12 Dec 5.5 03:58:57 48° NNW 04:01:07 66° NNE 04:08:31 10° ESE visible
12 Dec 7.1 19:14:11 10° NW 19:17:30 14° NNW 19:20:56 10° N visible
13 Dec 6.4 03:01:48 38° ENE 03:01:48 38° ENE 03:07:00 10° E visible
13 Dec 5.6 04:48:10 20° WNW 04:53:40 59° SSW 05:00:55 10° SE visible
14 Dec 7.8 02:04:36 12° E 02:04:36 12° E 02:05:05 10° E visible
14 Dec 5.3 03:50:59 64° WNW 03:52:23 85° SSW 04:00:00 10° ESE visible
15 Dec 6.3 02:53:46 43° E 02:53:46 43° E 02:58:44 10° ESE visible
15 Dec 6.2 04:40:08 20° W 04:44:59 40° SSW 04:51:54 10° SE visible
